Regional Weather Roundup
Issued by NWS

Home | Current Version | Previous Version | Text Only | Print | Product List | Glossary On
Versions: 1 2 3 4 5 6 7 8 9 10 11 12 13 14 15 16 17 18 19 20 21 22 23 24 25 26 27 28 29 30 31 32 33 34 35 36 37 38 39 40 41 42 43 44 45 46 47 48 49 50
000
ASUS43 KDTX 241701
RWRMI
MICHIGAN HOURLY REGIONAL WEATHER ROUNDUP
NATIONAL WEATHER SERVICE DETROIT/PONTIAC MI
1200 PM EST FRI FEB 24 2017

NOTE: "FAIR" INDICATES FEW OR NO CLOUDS BELOW 12,000 FEET WITH NO
SIGNIFICANT WEATHER AND/OR OBSTRUCTION TO VISIBILITY.

MIZ047>049-052>055-059>063-066>070-074>076-081>083-241800-
SOUTHEAST LOWER MICHIGAN

CITY           SKY/WX    TMP DP  RH WIND       PRES   REMARKS
ADRIAN         PTSUNNY   64  58  80 SW16      29.55F
ALMA           CLOUDY    37  36  96 NE8       29.60F WCI  30
ANN ARBOR      SUNNY     61  55  81 S12       29.55S
BAD AXE        CLOUDY    38  38  99 E5        29.59F WCI  35
CARO           MIX PCPN  41  40  96 CALM      29.60R
DETROIT CITY   MOSUNNY   53  50  89 SE9       29.58S
DETROIT        PTSUNNY   62  54  74 S9        29.57F
FLINT          CLOUDY    43  42  97 CALM      29.58R FOG
GROSSE ILE     SUNNY     49  45  88 S7        29.55F FOG
HILLSDALE      CLOUDY    61  55  82 S10       29.54S
HOWELL         CLOUDY    50  48  93 CALM      29.56S FOG

CITY           SKY/WX    TMP DP  RH WIND       PRES   REMARKS
JACKSON        CLOUDY    59  54  83 S8        29.55R
LAMBERTVILLE   SUNNY     70  57  63 S20       29.55S
LANSING        CLOUDY    42  39  89 NE8       29.57F FOG
LAPEER         FOG       42  42  99 CALM      29.59R VSB 1/2
MASON          CLOUDY    48  48 100 CALM      29.56S FOG
MONROE         SUNNY     62  56  83 SE12G21   29.54F
MT. CLEMENS    PTSUNNY   45  45 100 SE8       29.55F
PONTIAC        CLOUDY    50  50 100 SW8       29.56R FOG
PORT HOPE        N/A     37  36  96 E21       29.57F WCI  26
PORT HURON     CLOUDY    50  50 100 SE10      29.54F FOG
TRI CITIES     CLOUDY    38  38 100 NE14      29.60F WCI  30
MIDLAND        CLOUDY    38  36  92 NE9       29.61F WCI  31
TROY           CLOUDY    53  51  94 S5        29.58R FOG
SAGINAW HB     CLOUDY    37  36  93 N7        29.60R WCI  32
$$
MIZ043>046-050>051-056>058-064>065-071>073-077>080-241800-
SOUTHWEST LOWER MICHIGAN

CITY           SKY/WX    TMP DP  RH WIND       PRES   REMARKS
BATTLE CREEK   CLOUDY    50  49  96 NE7       29.52F FOG
BENTON HARBOR  CLOUDY    55  51  86 E6        29.46F FOG
BIG RAPIDS     LGT SNOW  36  34  93 E13       29.57F WCI  27
COLDWATER      CLOUDY    66  58  73 S12       29.50F
FREMONT        CLOUDY    35  35 100 E12       29.54S FOG     WCI  26
HOLLAND        LGT RAIN  39  37  92 E12       29.50F FOG     WCI  32
GRAND RAPIDS   CLOUDY    37  35  92 E13       29.53F WCI  29
IONIA          CLOUDY    36  36  99 NE9       29.56F FOG     WCI  29
KALAMAZOO      CLOUDY    57  53  86 E6        29.50F
LUDINGTON      CLOUDY    33  33 100 NE7       29.55F WCI  27
MARSHALL       CLOUDY    61  56  84 S9        29.52R
MOUNT PLEASANT CLOUDY    36  35  97 NE7       29.59F WCI  30
MUSKEGON       CLOUDY    37  36  96 E10       29.52F FOG     WCI  30
SOUTH HAVEN    CLOUDY    47  47  99 E7        29.47F FOG
$$
MIZ016>042-241800-
NORTHERN LOWER MICHIGAN

CITY           SKY/WX    TMP DP  RH WIND       PRES   REMARKS
ALPENA         LGT RAIN  34  34 100 NE10      29.70F WCI  26
BEAVER ISLAND  LGT SNOW  28  26  95 NE13      29.75R WCI  17
BELLAIRE       CLOUDY    32  32  99 NE8       29.64F FOG     WCI  25
CADILLAC       CLOUDY    33  32  97 CALM      29.58F FOG
CHARLEVOIX     LGT SNOW  32  31  97 NE15      29.68F WCI  21
FRANKFORT      CLOUDY    32  30  92 NE7       29.62F WCI  26
GAYLORD        LGT RAIN  34  30  85 NE12      29.64S WCI  25
GRAYLING       CLOUDY    34  32  94 E5        29.64F FOG     WCI  30
HARBOR SPRINGS LGT SNOW  32  31  95 NE18G26   29.67F WCI  21
HOUGHTON LAKE  CLOUDY    34  32  92 NE12      29.61F WCI  25
MANISTEE       CLOUDY    32  31  96 NE12      29.57F WCI  23
OSCODA         CLOUDY    35  34  96 NE12      29.65F WCI  27
PELLSTON       LGT SNOW  32  29  88 E14G28    29.70F VSB 1   WCI  22
ROGERS CITY    LGT SNOW  32  32  99 E13       29.75F VSB 3/4 WCI  23
TRAVERSE CITY  DRIZZLE   33  33 100 NE7       29.64F FOG     WCI  27
$$
MIZ007>008-015-241800-
EASTERN UPPER MICHIGAN

CITY           SKY/WX    TMP DP  RH WIND       PRES   REMARKS
KINROSS        LGT SNOW  27  24  89 NE17      29.75F VSB 1   WCI  14
MACKINAC ISLAN LGT SNOW  28  28 100 NE18G30   29.71F WCI  16
NEWBERRY       CLOUDY    24  22  92 N12       29.77S FOG     WCI  13
S. S. MARIE    LGT SNOW  28  23  81 NE13      29.77F WCI  17
MUNISING         N/A     27  22  81 NE23      29.79F WCI  12
$$
MIZ004>006-011>014-085-241800-
CENTRAL UPPER MICHIGAN

CITY           SKY/WX    TMP DP  RH WIND       PRES   REMARKS
MANISTIQUE     LGT SNOW  26  25  96 N18G24    29.70F WCI  12
ESCANABA       LGT SNOW  27  23  85 N14G23    29.75R FOG     WCI  16
MENOMINEE      LGT SNOW  28  24  85 NE21G26   29.70F FOG     WCI  15
SAWYER-GWINN   LGT SNOW  23  19  86 NE16G29   29.76F WCI  10
$$
MIZ001>003-009>011-084-241800-
WESTERN UPPER MICHIGAN

CITY           SKY/WX    TMP DP  RH WIND       PRES   REMARKS
IRON MOUNTAIN  LGT SNOW  24  17  74 N13       29.75R WCI  12
HOUGHTON       LGT SNOW  19  11  70 NE15      29.86F WCI   5
COPPER HARBOR    N/A     20  16  84 E21G26    29.91F WCI   4
IRONWOOD       LGT SNOW  21  18  86 N10G16    29.85S WCI  10
$$

ABBREVIATIONS USED IN REMARKS
   TC - TEMPERATURE IN CELSIUS
  WCI - WIND CHILL INDEX
   HX - HEAT INDEX
  VSB - VISIBILITY





USA.gov is the U.S. government's official web portal to all federal, state and local government web resources and services.